Time,TemperatureF,DewpointF,PressureIn,WindDirection,WindDirectionDegrees,WindSpeedMPH,WindSpeedGustMPH,Humidity,HourlyPrecipIn,Conditions,Clouds,dailyrainin,SoftwareType,DateUTC
2014-02-08 00:21:00,30.0,29.0,30.14,SW,227,3.0,6.0,95,0.00,,,0.11,,2014-02-08 07:21:00,
2014-02-08 00:52:00,31.0,30.0,30.13,South,190,2.0,4.0,95,0.00,,,0.11,,2014-02-08 07:52:00,
2014-02-08 01:21:00,31.0,30.0,30.13,SSE,167,3.0,5.0,95,0.00,,,0.11,,2014-02-08 08:21:00,
2014-02-08 01:52:00,31.0,30.0,30.14,SSE,167,0.0,0.0,95,0.00,,,0.11,,2014-02-08 08:52:00,
2014-02-08 02:22:00,31.0,30.0,30.14,SSE,167,0.0,0.0,95,0.00,,,0.11,,2014-02-08 09:22:00,
2014-02-08 02:53:00,32.0,31.0,30.13,SSE,165,0.0,0.0,95,0.00,,,0.11,,2014-02-08 09:53:00,
2014-02-08 03:12:00,32.0,30.0,30.14,SSE,165,0.0,0.0,94,0.00,,,0.11,,2014-02-08 10:12:00,
2014-02-08 03:23:00,32.0,30.0,30.15,SE,141,0.0,0.0,94,0.00,,,0.11,,2014-02-08 10:23:00,
2014-02-08 03:53:00,31.0,29.0,30.14,SE,141,0.0,0.0,94,0.00,,,0.11,,2014-02-08 10:53:00,
2014-02-08 04:21:00,32.0,30.0,30.14,SE,141,0.0,0.0,94,0.00,,,0.11,,2014-02-08 11:21:00,
2014-02-08 04:52:00,31.0,29.0,30.14,SE,141,0.0,2.0,93,0.00,,,0.11,,2014-02-08 11:52:00,
2014-02-08 05:12:00,29.0,27.0,30.14,SE,141,0.0,0.0,92,0.00,,,0.11,,2014-02-08 12:12:00,
2014-02-08 05:21:00,29.0,27.0,30.14,SE,141,0.0,0.0,94,0.00,,,0.11,,2014-02-08 12:21:00,
2014-02-08 05:52:00,27.0,25.0,30.15,SE,141,0.0,0.0,93,0.00,,,0.11,,2014-02-08 12:52:00,
2014-02-08 06:21:00,29.0,28.0,30.17,SE,141,0.0,0.0,95,0.00,,,0.11,,2014-02-08 13:21:00,
2014-02-08 06:52:00,26.0,24.0,30.17,SE,141,0.0,0.0,93,0.00,,,0.11,,2014-02-08 13:52:00,
2014-02-08 07:21:00,26.0,25.0,30.19,SE,141,0.0,0.0,94,0.00,,,0.11,,2014-02-08 14:21:00,
2014-02-08 07:52:00,24.0,23.0,30.19,SE,141,0.0,0.0,94,0.00,,,0.11,,2014-02-08 14:52:00,
2014-02-08 08:21:00,25.0,24.0,30.21,SE,141,0.0,0.0,95,0.00,,,0.11,,2014-02-08 15:21:00,
2014-02-08 08:54:00,28.0,27.0,30.22,SE,141,0.0,0.0,96,0.00,,,0.11,,2014-02-08 15:54:00,
2014-02-08 09:23:00,30.0,29.0,30.24,SE,141,0.0,0.0,96,0.00,,,0.11,,2014-02-08 16:23:00,
2014-02-08 09:53:00,33.0,32.0,30.23,SE,141,0.0,1.0,96,0.00,,,0.11,,2014-02-08 16:53:00,
2014-02-08 10:22:00,37.0,33.0,30.23,SE,141,0.0,3.0,84,0.01,,,0.12,,2014-02-08 17:22:00,
2014-02-08 10:52:00,39.0,32.0,30.23,WNW,286,3.0,8.0,76,0.01,,,0.12,,2014-02-08 17:52:00,
2014-02-08 11:22:00,41.0,33.0,30.24,WSW,237,3.0,7.0,74,0.00,,,0.12,,2014-02-08 18:22:00,
2014-02-08 11:52:00,44.0,34.0,30.26,SSW,207,2.0,6.0,68,0.00,,,0.12,,2014-02-08 18:52:00,
2014-02-08 12:21:00,47.0,35.0,30.25,SSE,150,4.0,5.0,62,0.00,,,0.12,,2014-02-08 19:21:00,
2014-02-08 12:52:00,49.0,37.0,30.23,SSE,166,6.0,9.0,62,0.00,,,0.12,,2014-02-08 19:52:00,
2014-02-08 13:22:00,49.0,37.0,30.21,South,187,6.0,10.0,62,0.00,,,0.10,,2014-02-08 20:22:00,
2014-02-08 13:52:00,50.0,36.0,30.21,SSW,195,7.0,10.0,58,0.00,,,0.10,,2014-02-08 20:52:00,
2014-02-08 14:11:00,51.0,37.0,30.20,SSE,160,5.0,10.0,58,0.00,,,0.06,,2014-02-08 21:11:00,
2014-02-08 14:21:00,52.0,37.0,30.20,South,171,6.0,9.0,56,0.00,,,0.06,,2014-02-08 21:21:00,
2014-02-08 14:53:00,51.0,37.0,30.19,South,178,6.0,11.0,59,0.00,,,0.06,,2014-02-08 21:53:00,
2014-02-08 15:23:00,50.0,36.0,30.19,SSW,196,8.0,11.0,59,0.00,,,0.02,,2014-02-08 22:23:00,
2014-02-08 15:53:00,49.0,36.0,30.19,SSE,160,8.0,14.0,60,0.00,,,0.02,,2014-02-08 22:53:00,
2014-02-08 16:22:00,49.0,35.0,30.19,SSW,201,7.0,12.0,58,0.00,,,0.01,,2014-02-08 23:22:00,
2014-02-08 16:53:00,47.0,34.0,30.20,SSE,150,6.0,8.0,61,0.00,,,0.01,,2014-02-08 23:53:00,
2014-02-08 17:11:00,46.0,34.0,30.20,SSE,155,4.0,9.0,63,0.00,,,0.01,,2014-02-09 00:11:00,
2014-02-08 17:21:00,45.0,34.0,30.19,SSE,160,6.0,9.0,64,0.00,,,0.01,,2014-02-09 00:21:00,
2014-02-08 17:52:00,45.0,34.0,30.19,SSE,155,3.0,6.0,64,0.00,,,0.01,,2014-02-09 00:52:00,
2014-02-08 18:21:00,42.0,32.0,30.19,SSE,155,0.0,0.0,68,0.00,,,0.01,,2014-02-09 01:21:00,
2014-02-08 18:52:00,38.0,30.0,30.19,SSE,155,0.0,0.0,73,0.00,,,0.01,,2014-02-09 01:52:00,
2014-02-08 19:21:00,36.0,30.0,30.20,SSE,155,0.0,0.0,79,0.00,,,0.01,,2014-02-09 02:21:00,
2014-02-08 19:52:00,36.0,30.0,30.20,ESE,119,0.0,4.0,80,0.00,,,0.01,,2014-02-09 02:52:00,
2014-02-08 20:21:00,34.0,29.0,30.20,ESE,119,0.0,0.0,83,0.00,,,0.01,,2014-02-09 03:21:00,
2014-02-08 20:44:00,32.0,27.0,30.19,ESE,119,0.0,0.0,82,0.00,,,0.01,,2014-02-09 03:44:00,
2014-02-08 21:23:00,32.0,30.0,30.22,ESE,118,0.0,0.0,91,0.00,,,0.01,,2014-02-09 04:23:00,
2014-02-08 21:53:00,33.0,30.0,30.23,ESE,117,0.0,4.0,90,0.00,,,0.01,,2014-02-09 04:53:00,
2014-02-08 22:22:00,34.0,31.0,30.22,ESE,117,0.0,0.0,89,0.00,,,0.01,,2014-02-09 05:22:00,
2014-02-08 22:52:00,32.0,29.0,30.23,ESE,117,0.0,0.0,89,0.00,,,0.01,,2014-02-09 05:52:00,
2014-02-08 23:23:00,32.0,30.0,30.24,ESE,115,0.0,4.0,91,0.00,,,0.01,,2014-02-09 06:23:00,